Change the Weather History Date:

Monday, October 14, 2013

  Actual Average Record
Temperature  
Mean Temperature 50 °F -  
Max Temperature 60 °F 53 °F 71 °F (2005)
Min Temperature 41 °F 42 °F 33 °F (2010)
Degree Days  
Heating Degree Days 14    
Moisture  
Dew Point 50 °F    
Average Humidity 90    
Maximum Humidity 94    
Minimum Humidity 82    
Precipitation  
Precipitation 0.08 in - - ()
Sea Level Pressure  
Sea Level Pressure 29.96 in    
Wind  
Wind Speed 8 mph ()    
Max Wind Speed 16 mph    
Max Gust Speed -    
Visibility 6.6 miles    
Events Rain    
Averages and records for this station are not official NWS values.
T = Trace of Precipitation, MM = Missing Value Source: Averaged Metar Reports

Daily Weather History Graph

Daily Weather History Graph

Search for Another Location

Airport or City:

Trip Planner

Search our weather history database for the weather conditions in past years. The results will help you decide how hot, cold, wet, or windy it might be!

Date:

Astronomy

Oct. 14, 2013 Rise Set
Actual Time 8:02 AM CEST 6:56 PM CEST
Civil Twilight 7:30 AM CEST 7:28 PM CEST
Nautical Twilight 6:54 AM CEST 8:04 PM CEST
Astronomical Twilight 6:18 AM CEST 8:40 PM CEST
Moon 4:35 PM CEST (10/14) 2:39 AM CEST (10/14)
Length of Visible Light 11h 57m
Length of Day
10h 54m
Waxing Gibbous, 77% of the Moon is Illuminated
Oct 14
Waxing Gibbous
Oct 19
Full
Oct 27
Last Quarter
Nov 3
New
Nov 10
First Quarter

Hourly Weather History & Observations

Time (CEST) Temp. Windchill Dew Point Humidity Pressure Visibility Wind Dir Wind Speed Gust Speed Precip Events Conditions
12:00 AM 44.6 °F 41.4 °F 41.0 °F 87% 30.04 in 6.2 mi SSE 5.8 mph - N/A   Unknown
12:30 AM 44.6 °F 39.7 °F 41.0 °F 87% 30.04 in 6.2 mi South 9.2 mph - N/A   Unknown
1:00 AM 44.6 °F 39.7 °F 42.8 °F 93% 30.01 in 6.2 mi South 9.2 mph - N/A   Unknown
1:30 AM 44.6 °F 39.7 °F 41.0 °F 87% 30.04 in 6.2 mi South 9.2 mph - N/A   Unknown
2:00 AM 44 °F - 42 °F 90% 30.04 in 12 mi South 9.2 mph - -   Clear
2:00 AM 44.6 °F 39.7 °F 42.8 °F 93% 30.01 in 6.2 mi South 9.2 mph - N/A   Unknown
2:30 AM 44.6 °F 40.2 °F 42.8 °F 93% 30.01 in 6.2 mi SSE 8.1 mph - N/A   Unknown
3:00 AM 44.6 °F 40.2 °F 42.8 °F 93% 30.01 in 6.2 mi SSE 8.1 mph - N/A   Mostly Cloudy
3:30 AM 46.4 °F 42.4 °F 42.8 °F 87% 30.01 in 6.2 mi SSE 8.1 mph - N/A   Unknown
4:00 AM 46.4 °F 42.9 °F 42.8 °F 87% 30.01 in 6.2 mi SSE 6.9 mph - N/A   Unknown
4:30 AM 46.4 °F 43.5 °F 44.6 °F 93% 30.01 in 6.2 mi SSE 5.8 mph - N/A   Mostly Cloudy
5:00 AM 46.4 °F 41.9 °F 44.6 °F 93% 30.01 in 6.2 mi South 9.2 mph - N/A   Mostly Cloudy
5:30 AM 48.2 °F - 46.4 °F 93% 29.98 in 6.2 mi South 10.4 mph - N/A   Unknown
6:00 AM 48.2 °F - 46.4 °F 93% 29.98 in 6.2 mi South 11.5 mph - N/A   Mostly Cloudy
6:30 AM 50.0 °F - 46.4 °F 87% 29.98 in 6.2 mi SSE 9.2 mph - N/A   Mostly Cloudy
7:00 AM 50.0 °F - 48.2 °F 94% 29.98 in 6.2 mi SSE 8.1 mph - N/A   Overcast
7:30 AM 50.0 °F - 48.2 °F 94% 29.98 in 6.2 mi SSE 6.9 mph - N/A   Mostly Cloudy
8:00 AM 50 °F - 48 °F 91% 30.01 in 16 mi SSE 4.6 mph - -   Mostly Cloudy
8:00 AM 50.0 °F - 48.2 °F 94% 29.98 in 6.2 mi SSE 4.6 mph - N/A   Mostly Cloudy
8:30 AM 51.8 °F - 48.2 °F 88% 29.98 in 6.2 mi SSE 5.8 mph - N/A   Overcast
9:00 AM 50.0 °F - 48.2 °F 94% 30.01 in 6.2 mi ESE 4.6 mph - N/A   Mostly Cloudy
9:30 AM 51.8 °F - 50.0 °F 94% 30.01 in 5.6 mi SSE 4.6 mph - N/A   Overcast
10:00 AM 51.8 °F - 50.0 °F 94% 29.98 in 6.2 mi SSE 8.1 mph - N/A   Overcast
10:30 AM 53.6 °F - 51.8 °F 94% 30.01 in 6.2 mi South 6.9 mph - N/A   Overcast
11:00 AM 53.6 °F - 51.8 °F 94% 29.98 in 6.2 mi SSE 5.8 mph - N/A   Overcast
11:30 AM 53.6 °F - 51.8 °F 94% 29.98 in 3.7 mi SSE 8.1 mph - N/A Rain Light Rain
12:00 PM 55.4 °F - 53.6 °F 94% 29.98 in 6.2 mi South 8.1 mph - N/A   Overcast
12:30 PM 57.2 °F - 53.6 °F 88% 29.98 in 6.2 mi SSW 11.5 mph - N/A   Mostly Cloudy
1:00 PM 57.2 °F - 53.6 °F 88% 29.98 in 6.2 mi South 10.4 mph - N/A   Mostly Cloudy
1:30 PM 57.2 °F - 55.4 °F 94% 29.95 in 6.2 mi South 10.4 mph - N/A Rain Light Rain
2:00 PM 58 °F - 54 °F 84% 29.96 in 9 mi South 13.8 mph - - Rain Light Rain
2:00 PM 59.0 °F - 55.4 °F 88% 29.95 in 6.2 mi South 13.8 mph - N/A   Overcast
2:30 PM 57.2 °F - 55.4 °F 94% 29.95 in 6.2 mi South 12.7 mph - N/A Rain Light Rain
3:00 PM 59.0 °F - 55.4 °F 88% 29.92 in 6.2 mi SSW 15.0 mph - N/A   Mostly Cloudy
3:30 PM 59.0 °F - 53.6 °F 82% 29.92 in 6.2 mi SSW 15.0 mph - N/A   Overcast
4:00 PM 59.0 °F - 55.4 °F 88% 29.92 in 6.2 mi South 16.1 mph - N/A Rain Light Rain
4:30 PM 59.0 °F - 55.4 °F 88% 29.92 in 6.2 mi SSW 11.5 mph - N/A   Mostly Cloudy
5:00 PM 59.0 °F - 53.6 °F 82% 29.92 in 6.2 mi SSW 10.4 mph - N/A   Mostly Cloudy
5:30 PM 59.0 °F - 53.6 °F 82% 29.89 in 6.2 mi SSW 11.5 mph - N/A   Overcast
6:00 PM 57.2 °F - 53.6 °F 88% 29.89 in 6.2 mi SSW 8.1 mph - N/A Rain Light Rain
6:30 PM 57.2 °F - 55.4 °F 94% 29.89 in 6.2 mi South 9.2 mph - N/A Rain Light Rain
7:00 PM 57.2 °F - 53.6 °F 88% 29.89 in 6.2 mi SSW 11.5 mph - N/A Rain Rain
7:30 PM 55.4 °F - 51.8 °F 88% 29.89 in 6.2 mi SSW 11.5 mph - N/A   Unknown
8:00 PM 55 °F - 51 °F 84% 29.92 in 12 mi South 6.9 mph - -   Clear
8:00 PM 55.4 °F - 51.8 °F 88% 29.89 in 6.2 mi South 6.9 mph - N/A   Overcast
8:30 PM 55.4 °F - 51.8 °F 88% 29.89 in 6.2 mi South 8.1 mph - N/A   Mostly Cloudy
9:00 PM 55.4 °F - 53.6 °F 94% 29.89 in 6.2 mi South 11.5 mph - N/A   Unknown
9:30 PM 55.4 °F - 53.6 °F 94% 29.89 in 6.2 mi SSW 12.7 mph - N/A   Unknown
10:00 PM 55.4 °F - 53.6 °F 94% 29.89 in 6.2 mi SSW 15.0 mph - N/A   Unknown
10:30 PM 55.4 °F - 53.6 °F 94% 29.89 in 6.2 mi SSW 13.8 mph - N/A   Unknown
11:00 PM 55.4 °F - 53.6 °F 94% 29.89 in 6.2 mi SSW 12.7 mph - N/A   Unknown
11:30 PM 55.4 °F - 53.6 °F 94% 29.89 in 6.2 mi SSW 13.8 mph - N/A   Overcast